Starlink 2001

operational
NORAD ID: 47596 Int'l Des: 2021-009 Owner: SPXS Country: US Constellation: starlink
LEOCIRCULARSTARLINK_TYPE

Über Starlink 2001

Beschreibung wird geladen...

Live-Position

3D-Globus wird geladen...

Nächste Überflüge

Höhenverlauf

Altitude vs Time

uPlot chart will show altitude changes over time

Zweizeiliger Elementsatz

1 47596U 21009BA 25354.91668981 .00061943 00000-0 31009-2 0 9998
2 47596 53.0556 34.9441 0000593 91.9701 254.0563 15.16833571 5781
Epoch: 20. Dez. 2025 • Age: 7 hours

Aktueller Status

Höhe 520.9 km
Geschwindigkeit 7.61 km/s
Subsatellitenpunkt 50.96°N, 16.28°W
Startdatum 4. Feb. 2021
Alter 4.8 years
Typ internet

Technische Details

Klassifizierung Payload
Masse 260.00 kg
Trockenmasse 248.00 kg
Gesamtmasse 260.00 kg
Länge 0.20 m
Durchmesser 2.80 m
Spannweite 9.00 m
Form Box + pan
Hersteller SPXS
Bus-Typ Starlink
Phasenstatus In Orbit
Besitzer/Staat SPXS/US

Große Konstellationen

Loading constellations...